Weather History for KFFT - October, 2013

Change the Weather History Date:

Sunday, October 6, 2013

  Actual Average Record
Temperature  
Mean Temperature 63 °F 60 °F  
Max Temperature 72 °F 72 °F 93 °F (1941)
Min Temperature 54 °F 47 °F 31 °F (1980)
Degree Days  
Heating Degree Days 2 7  
Month to date heating degree days 2 36  
Since 1 July heating degree days 32 90  
Cooling Degree Days 0 1  
Month to date cooling degree days 39 8  
Year to date cooling degree days 1126 1143  
Growing Degree Days 13 (Base 50)    
Moisture  
Dew Point 64 °F    
Average Humidity 93    
Maximum Humidity 100    
Minimum Humidity 86    
Precipitation  
Precipitation 1.32 in 0.10 in 1.60 in (1995)
Month to date precipitation 3.05 0.59  
Year to date precipitation 39.83 35.23  
Sea Level Pressure  
Sea Level Pressure 29.85 in    
Wind  
Wind Speed 5 mph (SSW)    
Max Wind Speed 23 mph    
Max Gust Speed 31 mph    
Visibility 6 miles    
Events Rain , Thunderstorm    
T = Trace of Precipitation, MM = Missing Value Source: NWS Daily Summary

Daily Weather History Graph

Daily Weather History Graph

Search for Another Location

Airport or City:

Trip Planner

Search our weather history database for the weather conditions in past years. The results will help you decide how hot, cold, wet, or windy it might be!

Date:

Astronomy

Oct. 06, 2013 Rise Set
Actual Time 7:40 AM EDT 7:14 PM EDT
Civil Twilight 7:13 AM EDT 7:40 PM EDT
Nautical Twilight 6:43 AM EDT 8:11 PM EDT
Astronomical Twilight 6:12 AM EDT 8:42 PM EDT
Moon 9:21 AM EDT (10/6) 8:15 PM EDT (10/6)
Length of Visible Light 12h 27m
Length of Day
11h 34m
Waxing Crescent, 3% of the Moon is Illuminated
Oct 6
Waxing Crescent
Oct 11
First Quarter
Oct 18
Full
Oct 26
Last Quarter
Nov 3
New

Hourly Weather History & Observations

Time (EDT) Temp. Dew Point Humidity Pressure Visibility Wind Dir Wind Speed Gust Speed Precip Events Conditions
12:12 AM 69.8 °F 68.0 °F 94% 29.96 in 10.0 mi NW 3.5 mph - N/A   Overcast
12:27 AM 69.8 °F 68.0 °F 94% 29.96 in 10.0 mi NNW 4.6 mph - N/A   Overcast
12:53 AM 69.1 °F 66.9 °F 93% 29.93 in 10.0 mi Calm Calm - N/A   Scattered Clouds
1:46 AM 68.0 °F 66.2 °F 94% 29.95 in 10.0 mi NNE 3.5 mph - N/A   Mostly Cloudy
1:53 AM 66.9 °F 66.9 °F 100% 29.92 in 10.0 mi NNW 3.5 mph - N/A   Mostly Cloudy
2:53 AM 66.0 °F 64.9 °F 96% 29.90 in 10.0 mi ENE 4.6 mph - N/A   Clear
3:18 AM 66.2 °F 66.2 °F 100% 29.91 in 10.0 mi ESE 3.5 mph - N/A   Scattered Clouds
3:27 AM 66.2 °F 66.2 °F 100% 29.90 in 10.0 mi East 4.6 mph - N/A   Mostly Cloudy
3:53 AM 66.9 °F 66.0 °F 97% 29.88 in 5.0 mi Calm Calm - N/A   Overcast
4:23 AM 66.2 °F 66.2 °F 100% 29.88 in 4.0 mi SE 4.6 mph - N/A   Mostly Cloudy
4:53 AM 66.0 °F 66.0 °F 100% 29.86 in 8.0 mi SE 4.6 mph - N/A   Mostly Cloudy
5:53 AM 66.9 °F 64.9 °F 93% 29.86 in 9.0 mi SSE 4.6 mph - N/A   Scattered Clouds
6:53 AM 66.9 °F 64.9 °F 93% 29.86 in 8.0 mi Calm Calm - N/A   Overcast
7:53 AM 66.9 °F 64.9 °F 93% 29.87 in 8.0 mi Calm Calm - N/A   Overcast
8:53 AM 66.9 °F 64.9 °F 93% 29.88 in 2.5 mi Calm Calm - 0.02 in Rain Light Rain
9:02 AM 66.2 °F 64.4 °F 94% 29.90 in 8.0 mi Calm Calm - 0.00 in   Overcast
9:19 AM 68.0 °F 64.4 °F 88% 29.90 in 2.5 mi Calm Calm - 0.02 in Rain , Thunderstorm Light Rain
9:34 AM 66.2 °F 64.4 °F 94% 29.90 in 6.0 mi WSW 5.8 mph - 0.04 in Thunderstorm Overcast
9:39 AM 66.2 °F 64.4 °F 94% 29.91 in 1.5 mi SW 4.6 mph - 0.08 in Rain , Thunderstorm Heavy Thunderstorms and Rain
9:44 AM 66.2 °F 64.4 °F 94% 29.91 in 0.8 mi WSW 4.6 mph - 0.15 in Rain , Thunderstorm Heavy Rain
9:53 AM 66.9 °F 64.9 °F 93% 29.89 in 0.8 mi Calm Calm - 0.23 in Rain , Thunderstorm Heavy Rain
9:56 AM 66.2 °F 64.4 °F 94% 29.90 in 1.2 mi Calm Calm - 0.00 in Rain , Thunderstorm Rain
9:59 AM 66.2 °F 64.4 °F 94% 29.90 in 2.0 mi Calm Calm - 0.00 in Rain Rain
10:08 AM 66.2 °F 66.2 °F 100% 29.90 in 5.0 mi SSE 4.6 mph - 0.01 in Rain Light Rain
10:53 AM 66.9 °F 66.0 °F 97% 29.86 in 3.0 mi SSE 9.2 mph - 0.06 in Rain Rain
11:13 AM 66.2 °F 66.2 °F 100% 29.87 in 2.5 mi SE 9.2 mph - 0.04 in Rain Rain
11:23 AM 68.0 °F 66.2 °F 94% 29.87 in 4.0 mi SSE 6.9 mph - 0.05 in Rain Light Rain
11:53 AM 69.1 °F 66.9 °F 93% 29.84 in 9.0 mi South 11.5 mph - 0.05 in   Mostly Cloudy
12:53 PM 69.1 °F 66.9 °F 93% 29.82 in 5.0 mi South 10.4 mph - 0.02 in Rain Rain
1:17 PM 69.8 °F 68.0 °F 94% 29.82 in 1.8 mi SSE 11.5 mph - 0.07 in Rain Heavy Rain
1:23 PM 69.8 °F 69.8 °F 100% 29.82 in 3.0 mi SSE 12.7 mph - 0.07 in Rain Light Rain
1:53 PM 72.0 °F 69.1 °F 91% 29.78 in 10.0 mi South 9.2 mph - 0.07 in   Overcast
2:19 PM 71.6 °F 68.0 °F 88% 29.79 in 2.0 mi SW 11.5 mph 19.6 mph 0.08 in Rain Light Rain
2:21 PM 69.8 °F 68.0 °F 94% 29.79 in 1.0 mi SSW 13.8 mph - 0.14 in Rain Heavy Rain
2:26 PM 69.8 °F 68.0 °F 94% 29.80 in 0.8 mi SSW 13.8 mph - 0.19 in Rain , Thunderstorm Heavy Thunderstorms and Rain
2:33 PM 69.8 °F 68.0 °F 94% 29.79 in 1.2 mi SSW 15.0 mph 23.0 mph 0.26 in Rain , Thunderstorm Heavy Thunderstorms and Rain
2:40 PM 69.8 °F 66.2 °F 88% 29.79 in 2.0 mi South 15.0 mph 31.1 mph 0.29 in Rain , Thunderstorm Heavy Thunderstorms and Rain
2:44 PM 69.8 °F 66.2 °F 88% 29.79 in 3.0 mi SSW 12.7 mph 31.1 mph 0.32 in Rain , Thunderstorm Thunderstorms and Rain
2:53 PM 69.1 °F 66.9 °F 93% 29.76 in 6.0 mi SSW 10.4 mph - 0.33 in Rain , Thunderstorm Light Thunderstorms and Rain
3:33 PM 69.8 °F 66.2 °F 88% 29.77 in 5.0 mi SSW 9.2 mph - 0.07 in Rain , Thunderstorm Light Thunderstorms and Rain
3:53 PM 69.1 °F 66.9 °F 93% 29.76 in 10.0 mi SSW 9.2 mph - 0.08 in Rain Light Rain
4:08 PM 68.0 °F 66.2 °F 94% 29.79 in 9.0 mi West 9.2 mph - 0.01 in Rain Light Rain
4:18 PM 66.2 °F 64.4 °F 94% 29.79 in 9.0 mi West 6.9 mph - 0.01 in   Overcast
4:53 PM 64.0 °F 62.1 °F 93% 29.78 in 10.0 mi WSW 9.2 mph - 0.01 in   Overcast
5:38 PM 62.6 °F 60.8 °F 94% 29.80 in 10.0 mi West 12.7 mph 19.6 mph N/A   Overcast
5:48 PM 62.6 °F 60.8 °F 94% 29.79 in 10.0 mi West 9.2 mph 16.1 mph 0.00 in Rain Light Rain
5:53 PM 62.1 °F 60.1 °F 93% 29.78 in 10.0 mi West 9.2 mph - 0.01 in Rain Light Rain
5:59 PM 62.6 °F 60.8 °F 94% 29.81 in 1.8 mi WSW 8.1 mph - 0.06 in Rain Rain
6:03 PM 62.6 °F 60.8 °F 94% 29.81 in 1.0 mi SW 9.2 mph - 0.10 in Rain Heavy Rain
6:13 PM 60.8 °F 60.8 °F 100% 29.80 in 2.0 mi West 6.9 mph - 0.13 in Rain Light Rain
6:20 PM 60.8 °F 59.0 °F 94% 29.80 in 10.0 mi West 11.5 mph 21.9 mph 0.13 in Rain Light Rain
6:53 PM 57.9 °F 54.0 °F 87% 29.81 in 10.0 mi WSW 9.2 mph 16.1 mph 0.16 in Rain Light Rain
7:40 PM 55.4 °F 53.6 °F 94% 29.84 in 2.5 mi WSW 4.6 mph - 0.09 in Rain Heavy Rain
7:53 PM 55.0 °F 54.0 °F 96% 29.84 in 10.0 mi SW 3.5 mph - 0.09 in   Overcast
8:08 PM 55.4 °F 53.6 °F 94% 29.84 in 1.8 mi West 6.9 mph - 0.07 in Rain Rain
8:17 PM 55.4 °F 53.6 °F 94% 29.84 in 3.0 mi WSW 6.9 mph - 0.09 in Rain Light Rain
8:53 PM 54.0 °F 52.0 °F 93% 29.84 in 10.0 mi Calm Calm - 0.12 in   Overcast
9:53 PM 54.0 °F 53.1 °F 97% 29.85 in 10.0 mi SW 3.5 mph - 0.07 in Rain Light Rain
10:53 PM 54.0 °F 53.1 °F 97% 29.86 in 10.0 mi SSW 6.9 mph - 0.00 in   Overcast
11:53 PM 54.0 °F 52.0 °F 93% 29.87 in 10.0 mi SW 8.1 mph - N/A   Overcast